[Date Prev][Date Next][Thread Prev][Thread Next] - [Date Index][Thread Index][Author Index]

2 Line ISS Keps 3-23



ISS
1 25544U 98067A   02082.20067941  .00060472  00000-0  77809-3 0  2199
2 25544  51.6372 124.9778 0003769 309.6398 120.6287 15.58467408190629


----
Via the sarex mailing list at AMSAT.ORG courtesy of AMSAT-NA.
To unsubscribe, send "unsubscribe sarex" to Majordomo@amsat.org



AMSAT Top AMSAT Home